Regional Weather Roundup
Issued by NWS State College, PA

Home | Current Version | Previous Version | Text Only | Print | Product List | Glossary On
Versions: 1 2 3 4 5 6 7 8 9 10 11 12 13 14 15 16 17 18 19 20 21 22 23 24 25 26 27 28 29 30 31 32 33 34 35 36 37 38 39 40 41 42 43 44 45 46 47 48 49 50
000
ASUS41 KCTP 161210
RWRCTP

REGIONAL WEATHER ROUNDUP
NATIONAL WEATHER SERVICE STATE COLLEGE PA
800 AM EDT WED AUG 16 2017

Note: "fair" indicates few or no clouds below 12,000 feet with no
significant weather and/or obstructions to visibility.

* = STATION THAT DOES NOT REPORT PRECIPITATION /E.G. RAIN...SNOW...ETC/
    THUNDER OR FOG.

PAZ002>004-007>009-013>016-020>023-029>032-161300-
WESTERN PENNSYLVANIA

CITY           SKY/WX    TMP DP  RH WIND       PRES   REMARKS
ERIE           SUNNY     63  60  90 CALM      30.07R
MEADVILLE      SUNNY     63  62  97 CALM      30.10R
FRANKLIN*      CLOUDY    59  55  88 SW3       30.11R VSB 1/4
NEW CASTLE     FOG       61  61 100 CALM      30.10R VSB 1/2
BEAVER COUNTY  PTSUNNY   64  63  94 N3        30.09R
BUTLER*        PTSUNNY   64  61  88 CALM      30.09R
PITTSBURGH INT PTSUNNY   69  65  86 N5        30.07
PITTSBURGH     CLOUDY    69  64  84 CALM      30.07R
INDIANA*       FOG       64  64 100 CALM      30.11R VSB 1/2
LATROBE        PTSUNNY   64  64 100 CALM      30.08R FOG
WASHINGTON CO* MOSUNNY   63  61  94 CALM      30.08R
$$

PAZ004>006-010>012-017>019-024>028-033>037-041-042-045-046-049>053-161300-
CENTRAL PENNSYLVANIA

CITY           SKY/WX    TMP DP  RH WIND       PRES   REMARKS
BRADFORD       FOG       61  61 100 N6        30.10R VSB<1/4
DUBOIS         SUNNY     64  60  87 N6        30.08R FOG
CLEARFIELD     FOG       61  61 100 CALM      30.08R VSB<1/4
JOHNSTOWN      CLOUDY    68  64  87 VRB3      30.11R
ALTOONA        MOSUNNY   67  66  97 CALM      30.07R FOG
STATE COLLEGE  SUNNY     64  64 100 CALM      30.07R
WILLIAMSPORT   CLOUDY    67  66  97 W6        30.02R FOG
SELINSGROVE    CLOUDY    68  68 100 CALM      30.02S FOG
FT INDIANTOWN  FOG       68  68 100 SE3       30.00R VSB 1/4
CAPITAL CITY   FOG       69  68  96 W3        30.00R VSB 1/4
HARRISBURG     FOG       69  69 100 NW7       29.99S VSB 1/4
YORK           FOG       67  67 100 CALM      30.01R VSB<1/4
$$

PAZ038>040-043-044-047-048-054-055-060>062-067>071-161300-
EASTERN PENNSYLVANIA

CITY           SKY/WX    TMP DP  RH WIND       PRES   REMARKS
SCRANTON       FOG       64  64 100 CALM      30.04R VSB 1/4
MOUNT POCONO   SUNNY     65  63  93 NW6       30.04R
ALLENTOWN      FOG       69  67  93 SW5       29.99R VSB 1/4
QUAKERTOWN*    SUNNY     66  66 100 CALM      30.00S
READING        FOG       68  68 100 CALM      29.99R VSB 1/4
LANCASTER      FOG       68  68 100 W6        30.00R VSB<1/4
COATESVILLE    SUNNY     70  70 100 NW7       30.01S FOG
POTTSTOWN      FOG       67  67 100 CALM      30.00R VSB 1/4
BLUE BELL      CLOUDY    66  66 100 CALM      30.00R VSB 1/4
DOYLESTOWN     MOSUNNY   68  68 100 CALM      29.98R FOG
WILLOW GROVE   NOT AVBL
NORTH PHILA    CLOUDY    72  70  93 CALM      29.98S FOG
PHILADELPHIA   MOSUNNY   73  69  87 NW6       29.98R FOG
$$




USA.gov is the U.S. government's official web portal to all federal, state and local government web resources and services.